FW93366 Weather Reports


time (UTC)temp
F
wind
direction
speed
knots
gust
knots
rain 1hr
in
rain 24hr
in
rain mn
in
humidity
%
barometer
mb
20260505124546 43 220 0.0 2.6 0.00 0.33 0.20 93 1011.6
20260505123039 43 0 0.0 0.0 0.00 0.33 0.20 93 1011.5
20260505121539 44 0 0.0 0.0 0.00 0.33 0.20 93 1011.5
20260505120046 43 0 0.0 2.6 0.01 0.33 0.20 93 1011.5
20260505114545 43 0 0.0 0.0 0.01 0.33 0.20 93 1011.4
20260505113045 43 0 0.0 0.9 0.03 0.33 0.20 93 1011.4
20260505111540 44 0 0.0 0.0 0.03 0.33 0.20 93 1011.6
20260505101541 44 0 0.0 2.6 0.09 0.30 0.17 93 1011.7
20260505100044 44 0 0.0 0.9 0.08 0.29 0.16 93 1012.0
20260505094541 44 196 0.0 3.5 0.07 0.26 0.13 93 1011.7
20260505093041 44 0 0.0 0.0 0.04 0.22 0.09 93 1012.1
20260505091559 44 259 0.0 3.5 0.04 0.21 0.08 92 1012.2
20260505090047 44 265 0.9 2.6 0.04 0.21 0.08 92 1012.3
20260505084541 44 21 0.0 3.5 0.03 0.19 0.06 92 1012.3
20260505083046 44 13 0.9 2.6 0.02 0.18 0.05 92 1012.3
20260505081557 44 295 0.0 6.1 0.01 0.17 0.04 91 1012.1
20260505080054 44 0 0.0 0.0 0.04 0.17 0.04 91 1012.4
20260505074545 44 0 0.0 0.0 0.04 0.16 0.03 90 1012.7
20260505073046 44 0 0.0 0.0 0.04 0.16 0.03 90 1012.7
20260505071552 44 0 0.0 0.0 0.04 0.16 0.03 91 1012.4
20260505070046 44 0 0.0 0.0 0.03 0.13 0.00 90 1012.4
20260505064539 45 0 0.0 0.0 0.02 0.12 0.12 91 1012.4
20260505063104 45 0 0.0 0.0 0.02 0.12 0.12 91 1012.3
20260505061610 45 0 0.0 0.0 0.06 0.12 0.12 90 1012.0
20260505060042 45 0 0.0 3.5 0.05 0.10 0.10 90 1012.2
20260505054545 44 218 1.7 5.2 0.05 0.10 0.10 89 1012.3
20260505053047 45 202 1.7 4.3 0.06 0.10 0.10 89 1012.6
20260505051604 45 0 0.0 0.0 0.03 0.06 0.06 88 1012.8
20260505041543 46 205 2.6 7.8 0.00 0.03 0.03 79 1012.2
20260505040041 45 281 4.3 9.6 0.00 0.03 0.03 77 1012.2
20260505034543 46 244 5.2 11.3 0.00 0.03 0.03 75 1012.4
20260505033044 46 261 7.0 13.0 0.00 0.03 0.03 77 1012.1
20260505031553 47 259 7.0 10.4 0.00 0.03 0.03 73 1011.7
20260505030044 47 268 2.6 15.6 0.01 0.03 0.03 69 1011.6
20260505024548 47 300 4.3 9.6 0.01 0.03 0.03 71 1011.2
20260505023048 46 259 4.3 15.6 0.01 0.03 0.03 74 1011.2
20260505021549 46 293 3.5 11.3 0.01 0.03 0.03 76 1011.4
20260505020043 47 290 1.7 10.4 0.01 0.02 0.02 80 1012.1
20260505014544 47 306 6.1 12.2 0.01 0.02 0.02 74 1012.2
20260505013045 47 292 6.1 13.9 0.01 0.02 0.02 75 1012.3
20260505011545 48 270 8.7 15.6 0.01 0.02 0.02 71 1012.2
20260505010043 51 312 4.3 10.4 0.00 0.01 0.01 66 1012.3
20260505004539 52 0 0.9 6.1 0.00 0.01 0.01 67 1012.0
20260505003039 53 0 1.7 5.2 0.00 0.01 0.01 65 1011.7
20260505001539 54 0 0.0 4.3 0.00 0.01 0.01 62 1011.6
20260505000047 55 309 0.9 8.7 0.00 0.01 0.01 62 1011.5
20260504234542 56 206 3.5 8.7 0.00 0.02 0.01 58 1011.2
20260504233048 56 300 0.9 5.2 0.00 0.02 0.01 59 1010.8
20260504231546 56 265 6.1 16.5 0.00 0.02 0.01 58 1010.9
20260504230050 56 245 7.8 15.6 0.00 0.02 0.01 60 1011.1
20260504224540 55 304 6.1 13.9 0.00 0.02 0.01 62 1011.5
20260504223041 55 160 1.7 6.1 0.00 0.02 0.01 58 1011.7
20260504221539 54 173 2.6 11.3 0.00 0.02 0.01 63 1012.0
20260504220048 53 162 4.3 15.6 0.00 0.02 0.01 67 1012.2
20260504214538 51 169 7.8 16.5 0.00 0.04 0.01 67 1012.2
20260504213045 50 167 7.8 14.8 0.00 0.04 0.01 67 1012.6
20260504211541 54 0 0.0 4.3 0.00 0.04 0.01 62 1012.5
20260504210045 54 0 1.7 4.3 0.00 0.04 0.01 61 1012.3
20260504204546 53 330 4.3 9.6 0.00 0.04 0.01 68 1012.2
20260504203053 52 12 3.5 13.0 0.00 0.04 0.01 72 1012.3
20260504201546 52 348 4.3 13.0 0.00 0.04 0.01 70 1012.2
20260504200044 52 331 5.2 13.0 0.00 0.04 0.01 69 1012.2
20260504194540 54 348 1.7 13.0 0.00 0.04 0.01 69 1012.2
20260504193049 54 311 4.3 9.6 0.00 0.04 0.01 66 1012.2
20260504191542 55 341 3.5 7.0 0.00 0.04 0.01 64 1012.1
20260504190107 55 212 7.0 12.2 0.00 0.04 0.01 63 1012.1
20260504184544 56 244 4.3 11.3 0.00 0.04 0.01 61 1012.1
20260504183040 55 181 1.7 5.2 0.00 0.04 0.01 61 1012.1
20260504181544 53 155 0.9 3.5 0.00 0.04 0.01 65 1012.0
20260504180040 52 174 2.6 6.1 0.00 0.04 0.01 67 1012.4
20260504174537 51 184 3.5 9.6 0.00 0.04 0.01 73 1012.3
20260504173040 50 150 3.5 10.4 0.00 0.04 0.01 78 1012.5
20260504171539 51 201 4.3 10.4 0.00 0.04 0.01 72 1012.2